LILACSAT-1 (LO-90) (42725 NORAD) Tracking and Keplerian Element Data

This shows tracking and keplerian element data for the satellite.

Feedback or suggestion? Click here.




ElementValue
Catalog42725
NameLILACSAT-1 (LO-90)
Epoch Orbit10447
Epoch Day81.00301479
Epoch Year2019
RAAN356.7588
Inclination51.6245
Eccentricity0.0005425
Argument of Perigee203.2972
Mean Anonmoly156.7892
Mean Motion16.14219761
Decay Rate0.00711173
L11 42725U 98067ME 19081.00301479 .00711173 30517-3 55170-3 0 9993
L22 42725 51.6245 356.7588 0005425 203.2972 156.7892 16.14219761104470

Live tracking and technical data element details for LILACSAT-1 (LO-90) (NORAD 42725). LILACSAT-1 (LO-90) can be tracked NOW for your location showing map with azimuth and elevation plus other details from your city location.

Track the satellite on the map from your city or location and see movement details for azimuth, elevation, latitude, longitude, range, height, and movement on the map or in text.







IsCatalogInMostPopularTable: catalog: 42725, numindb: 238
Update: records affected: 1



GetName: 42725 LILACSAT-1 (LO-90)

Hit Count: updated at: Sat, 23 Mar 2019 02:15:53 GMT